Terug naar catalogus

MIMIR 1

ActiefWetenschapSSO
NORAD 68490·PAYLOAD·🇳🇴 Norway

Gelanceerd Mar 30, 2026 vanaf Vandenberg Space Force Base

Loading…

Volgende Passages (komende 24 uur)

TLE

VersSource: Space-Track

Epoch: Sep 14, 2026, 08:02 UTC

1 68490U 26067CC  26257.33481456  .00001375  00000-0  14452-3 0  9999
2 68490  97.7707 214.1047 0003683  90.4108 269.7533 14.91063061 25000

Volg MIMIR 1 in realtime met AllMySat

Download on the App Store